www.pogodaiklimat.ru

Погода и климат >> Архив погоды >> Экваториальная Гвинея >> Malabo


ПОГОДА в Malabo

  • Прогноз погоды в Malabo
  • Монитор погоды в Malabo
  • Климат города

АРХИВ ПОГОДЫ в Malabo

Время (UTC), дата Ветер
(напр.,м/с)
 
Видим.   Явления Облачность Т
(С)
Тd
(С)
f
(%)
Тe
(С)
Тes
(С)
Комфортность P
(гПа)
Po
(гПа)
Тmin
(С)
Tmax
(С)
R
(мм)
R24
(мм)
S
(см)
12 15.10 С 1 10 км 8/5 400 м
[Cu med, cong Ac trans]
+29.7 +23.6 70 +41 +48 опасность
перегрева
1009.4
15 15.10 ЮВ 3 10 км 8/5 420 м
[Cu med, cong Ac trans]
+28.5 +23.5 74 +39 +41 очень
душно
1008.1
21 15.10 штиль 0 10 км зарница 9/5 400 м
[Cb cap Ac As]
+25.2 +24.2 94 +35 +35 очень
душно
1010.3
00 16.10 штиль 0 10 км 9/5 400 м
[Sc Ac As]
+24.6 +23.7 95 +33 +33 очень
душно
1010.7
03 16.10 штиль 0 10 км 9/5 400 м
[Sc Ac As]
+24.0 +22.4 91 +31 +31 очень
душно
1009.6
06 16.10 штиль 0 10 км 9/5 400 м
[Sc Ac As]
+24.5 +22.9 91 +32 +33 очень
душно
1010.5 +23.2
09 16.10 штиль 0 8000 м 10/6 360 м
[Cb cap As op]
+25.5 +24.1 92 +35 +37 очень
душно
1012.0
12 16.10 ЮЗ 1 10 км 8/5 420 м
[Cu med, cong Ac trans]
+29.5 +23.4 70 +40 +48 очень
душно
1009.8
15 16.10 Ю 3 10 км 9/3 450 м
[Cu med, cong Ac As]
+29.5 +23.7 71 +40 +42 очень
душно
1007.8
18 16.10 Ю 3 10 км 9/3 400 м
[Sc diur, vesp Ac As]
+27.0 +24.3 85 +38 +38 очень
душно
1009.0 +29.3 2
21 16.10 штиль 0 10 км 6/4 400 м
[Sc Ac trans]
+25.5 +24.1 92 +35 +35 очень
душно
1011.2
00 17.10 штиль 0 10 км 8/4 400 м
[Sc Ac trans]
+25.5 +24.1 92 +35 +35 очень
душно
1010.1
03 17.10 штиль 0 10 км зарница {дождь} 10/6 400 м
[Cb cap Ac As]
+25.0 +23.6 92 +34 +34 очень
душно
1009.0
06 17.10 штиль 0 10 км гроза без осадков {дождь} 8/5 400 м
[Cb cap Ac cuf]
+25.0 +23.8 93 +34 +34 очень
душно
1009.8 +25.0 1
09 17.10 Ю 2 9000 м гроза без осадков 10/5 360 м
[Cb cap Ac As]
+28.0 +24.6 82 +40 +42 очень
душно
1011.9
12 17.10 Ю 3 6000 м гроза, ливневой дождь 10/6 300 м
[Cb cap As op]
+24.0 +22.6 92 +31 +33 очень
душно
1010.0 13
15 17.10 штиль 0 10 км в посл. час гроза {дождь} 8/5 400 м
[Cb cap Ac cuf]
+25.3 +22.0 82 +33 +35 очень
душно
1007.2
18 17.10 штиль 0 10 км 6/4 400 м
[Sc Ac trans]
+24.2 +22.5 90 +32 +32 очень
душно
1009.1 +29.5 3
21 17.10 штиль 0 10 км 8/4 400 м
[Sc Ac trans]
+23.0 +22.3 96 +31 +31 очень
душно
1011.0
00 18.10 штиль 0 10 км 8/4 400 м
[Sc Ac trans]
+22.5 +22.0 97 +30 +30 очень
душно
1009.1
03 18.10 штиль 0 9000 м 9/5 360 м
[Sc Ac As]
+22.4 +21.7 96 +30 +30 очень
душно
1008.4
06 18.10 Ю 2 9000 м 10/4 400 м
[Sc Ac As]
+21.8 +21.0 95 +28 +28 душно 1010.2 +21.4 15
09 18.10 В 3 10 км 10/5 400 м
[Cu med, cong Ac As]
+28.2 +23.6 76 +38 +40 очень
душно
1011.2
12 18.10 СВ 3 10 км 9/5 400 м
[Cu med, cong Ac As]
+29.2 +24.5 76 +41 +45 опасность
перегрева
1008.5
15 18.10 ЮВ 3 10 км 6/4 420 м
[Cu med, cong Ac trans]
+29.0 +23.7 73 +40 +43 очень
душно
1006.2
18 18.10 штиль 0 10 км 5/3 300 м
[Sc diur, vesp Ac trans]
+26.5 +24.0 86 +37 +37 очень
душно
1006.9 +30.0
21 18.10 штиль 0 10 км 6/4 400 м
[Sc Ac trans]
+24.5 +23.5 94 +33 +33 очень
душно
1008.5
00 19.10 штиль 0 10 км 6/5 400 м
[Sc Ac trans]
+24.0 +23.3 96 +32 +32 очень
душно
1007.6
03 19.10 штиль 0 10 км 6/5 400 м
[Sc Ac trans]
+23.0 +22.3 96 +31 +31 очень
душно
1007.2
06 19.10 штиль 0 10 км 6/4 400 м
[Cu med, cong Ac trans]
+22.2 +21.4 95 +29 +29 очень
душно
1008.6 +23.0
09 19.10 ЮЗ 1 10 км 5/4 400 м
[Cu med, cong Ac trans]
+29.5 +22.5 66 +39 +47 очень
душно
1009.9
12 19.10 ЮЗ 1 10 км 5/4 420 м
[Cu med, cong Ac trans]
+30.5 +26.2 78 +46 +59 опасность
перегрева
1007.2
15 19.10 ЮЗ 3 10 км 5/4 450 м
[Cu med, cong Ac trans]
+30.0 +25.1 75 +43 +46 опасность
перегрева
1005.0
18 19.10 Ю 2 10 км 4/3 450 м
[Cu med, cong Ac trans]
+27.0 +24.1 84 +37 +37 очень
душно
1006.0 +29.9
21 19.10 штиль 0 10 км 3/3 420 м
[Sc Ac trans]
+25.2 +23.4 90 +34 +34 очень
душно
1007.4
00 20.10 штиль 0 10 км 3/3 420 м
[Sc Ac trans]
+24.6 +24.1 97 +34 +34 очень
душно
1006.4
03 20.10 штиль 0 10 км 3/3 420 м
[Sc Ac trans]
+24.0 +23.5 97 +32 +32 очень
душно
1006.1
06 20.10 штиль 0 10 км 9/4 400 м
[Sc Ac As]
+23.0 +22.3 96 +31 +32 очень
душно
1007.3 +23.5
09 20.10 С 0 10 км 5/3 450 м
[Cu med, cong Ac trans]
+30.7 +24.6 70 +43 +54 опасность
перегрева
1008.7
12 20.10 Ю 2 10 км 9/5 420 м
[Cb cap Ac As]
+30.0 +25.1 75 +43 +48 опасность
перегрева
1007.0
15 20.10 ЮЗ 3 10 км 8/5 400 м
[Cu med, cong Ac trans]
+30.0 +25.1 75 +43 +45 опасность
перегрева
1004.6
18 20.10 штиль 0 10 км зарница 8/5 400 м
[Cb cap Ac cuf]
+27.5 +25.3 88 +40 +40 очень
душно
1006.2 +30.0
21 20.10 штиль 0 10 км зарница 5/3 420 м
[Cb cap Ac cuf]
+27.0 +25.4 91 +39 +39 очень
душно
1007.6
00 21.10 Ю 3 10 км гроза без осадков 8/4 400 м
[Cb cap Ac cuf]
+26.8 +25.6 93 +39 +39 очень
душно
1006.1
03 21.10 ЮЗ 2 9000 м гроза без осадков 10/5 360 м
[Cb cap Ac As]
+25.7 +25.0 96 +37 +37 очень
душно
1005.5
06 21.10 ЮЗ 3 6000 м гроза, ливневой дождь 10/6 300 м
[Cb cap As op]
+26.2 +25.2 94 +38 +38 очень
душно
1007.3 +26.0 1
09 21.10 Ю 2 10 км 8/4 400 м
[Sc Ac trans]
+29.1 +26.5 86 +45 +50 опасность
перегрева
1008.2
12 21.10 ЮЗ 3 10 км {гроза, дождь} 8/5 400 м
[Cu med, cong Ac trans]
+29.0 +25.2 80 +42 +47 опасность
перегрева
1006.3

 

Местоположение метеостанции Malabo (Экваториальная Гвинея): широта 3.76 долгота 8.71 высота над уровнем моря 23 м.

В архиве по умолчанию представлена погода в Malabo за последнюю неделю. Архивные данные за месяц целиком и за предыдущие месяцы, начиная с января 2011 года, Вы можете получить, выбрав интересующий диапазон дат из раскрывающегося списка и нажав кнопку "Ввод!".


*Определитесь, кто Вы:
робот инопланетянин человек

Внимание! Время в таблицах - всемирное. Для получения местного времени необходимо прибавить поправку, которая в Malabo равна 1 ч.

Смотрите также архив погоды в соседних городах и на ближайших метеорологических станциях:

Погода в Douala (Камерун) (116 км)
Погода в Kalabar (Нигерия) (141 км)
Погода в Port Harcourt (Нигерия) (223 км)
Погода в Bata (Экваториальная Гвинея) (239 км)
Погода в Enugu (Нигерия) (327 км)
Погода в Bitam (Габон) (360 км)
Погода в Libreville (Габон) (377 км)
Погода в Oyem (Габон) (400 км)
Погода в Makurdi (Нигерия) (442 км)
Погода в Port-Gentil (Габон) (496 км)

Пояснения к столбцам:

Ветер - указаны скорость ветра в м/с - средняя за 10 мин, порывы в срок и между сроками (в фигурных скобках) и направление, откуда дует ветер: С - северный, СВ - северо-восточный, В - восточный, ЮВ - юго-восточный, Ю - южный, ЮЗ - юго-западный, З - западный, СЗ - северо-западный.
Видимость - горизонтальная дальность видимости в метрах или километрах. При видимости от 1 до 10 км при отсутствии осадков обычно наблюдается дымка, при ухудшении видимости до 1 км и менее - туман. В сухую погоду видимость может ухудшаться дымом, пылью или мглою.
Явления - указаны атмосферные явления, наблюдавшиеся в срок или в последний час перед сроком; фигурными скобками обозначены явления, наблюдавшиеся между сроками (за 1-3 часа до срока); квадратными скобками обозначены град или гололедные отложения с указанием их диаметра в мм.
Облачность - указаны через наклонную черту общая и нижняя облачность в баллах и высота нижней границы облаков в метрах; квадратными скобками обозначены формы облаков: Ci - перистые, Cs - перисто-слоистые, Cc - перисто-кучевые, Ac - высококучевые, As - высокослоистые, Sc - слоисто-кучевые, Ns - слоисто-дождевые, Cu - кучевые, Cb - кучево-дождевые. Подробнее классификацию облаков см. в Атласе облаков (PDF).
T - Температура воздуха - температура, измеренная на высоте 2 м над землей.
Td - Температура точки росы - температура, при понижении до которой содержащийся в воздухе водяной пар достигнет насыщения.
f - Относительная влажность воздуха - влажноcть воздуха, измеренная на высоте 2 м над землей.
Te - Эффективная температура - температура, которую ощущает одетый по сезону человек в тени. Характеристика душности погоды. При расчете учитывается влияние влажности воздуха и скорости ветра на теплоощущения человека.
Tes - Эффективная температура на солнце - температура, которую ощущает человек, с поправкой на солнечный нагрев. Характеристика знойности погоды. Зависит от высоты солнца над горизонтом, облачности и скорости ветра. Ночью, в пасмурную погоду, а также при ветре 12 м/с и более поправка равна нулю.
P - Атмосферное давление - приведенное к уровню моря атмосферное давление.
Po - Атмосферное давление - измеренное на уровне метеостанции атмосферное давление.
Tmin - Минимальная температура - минимум температуры воздуха на высоте 2 м над землей.
Tmax - Максимальная температура - максимум температуры воздуха на высоте 2 м над землей.
R - Количество осадков - Количество выпавших осадков за период времени, мм. При наведении курсора мыши на число - период времени, за который выпало указанное количество осадков.
R24 - Количество осадков - Количество выпавших осадков за 24 часа, мм.
S - Снежный покров - Высота снежного покрова, см. При наведении курсора мыши на число - состояние снежного покрова и степень покрытия местности в баллах.